Meadow Lake, CO

7:31 PM MDT on September 19, 2019 (GMT -0600)
Meadow Lake

Weather History for KFLY - August, 2019

Change the Weather History Date:

Sunday, August 18, 2019

  Actual Average (WUND) Record (WUND)
Temperature  
Mean Temperature 72 °F -  
Max Temperature 89 °F - - (-1)
Min Temperature 55 °F - - (-1)
Cooling Degree Days 7    
Growing Degree Days 22 (Base 50)    
Moisture  
Dew Point 38 °F    
Average Humidity 34    
Maximum Humidity 56    
Minimum Humidity 11    
Precipitation  
Precipitation 0.00 in - - ()
Sea Level Pressure  
Sea Level Pressure 30.17 in    
Wind  
Wind Speed 9 mph (SSW)    
Max Wind Speed 20 mph    
Max Gust Speed 26 mph    
Visibility 10 miles    
Events      
Averages and records for this station are not official NWS values.
T = Trace of Precipitation, MM = Missing Value Source: NWS Daily Summary

Daily Weather History Graph

Daily Weather History Graph

Search for Another Location

Airport or City:

Astronomy

Aug. 18, 2019 Rise Set
Actual Time 6:14 AM MDT 7:49 PM MDT
Civil Twilight 5:46 AM MDT 8:17 PM MDT
Nautical Twilight 5:11 AM MDT 8:51 PM MDT
Astronomical Twilight 4:35 AM MDT 9:27 PM MDT
Moon 9:46 PM MDT (8/18) 9:00 AM MDT (8/18)
Length of Visible Light 14h 31m
Length of Day
13h 34m
Waning Gibbous, 91% of the Moon is Illuminated
Aug 18
Waning Gibbous
Aug 23
Last Quarter
Aug 30
New
Sep 5
First Quarter
Sep 13
Full

Hourly Weather History & Observations

Time (MDT) Temp. Dew Point Humidity Pressure Visibility Wind Dir Wind Speed Gust Speed Precip Events Conditions
12:15 AM 60.1 °F 37.8 °F 44% 30.14 in 10.0 mi NW 6.9 mph - N/A   Clear
12:35 AM 57.2 °F 37.4 °F 48% 30.12 in 10.0 mi NW 9.2 mph - N/A   Clear
12:55 AM 57.4 °F 37.0 °F 47% 30.12 in 10.0 mi WNW 6.9 mph - N/A   Clear
1:15 AM 57.0 °F 37.2 °F 48% 30.14 in 10.0 mi West 5.8 mph - N/A   Clear
1:35 AM 57.4 °F 36.7 °F 46% 30.14 in 10.0 mi West 8.1 mph - N/A   Clear
1:55 AM 59.9 °F 36.5 °F 42% 30.14 in 10.0 mi West 8.1 mph - N/A   Clear
2:15 AM 59.4 °F 36.3 °F 42% 30.13 in 10.0 mi West 5.8 mph - N/A   Clear
2:35 AM 58.1 °F 37.4 °F 46% 30.13 in 10.0 mi WSW 6.9 mph - N/A   Clear
2:55 AM 59.9 °F 36.0 °F 41% 30.14 in 10.0 mi West 5.8 mph - N/A   Clear
3:15 AM 59.9 °F 36.5 °F 42% 30.15 in 10.0 mi West 5.8 mph - N/A   Clear
3:35 AM 58.5 °F 37.2 °F 45% 30.15 in 10.0 mi NW 5.8 mph - N/A   Clear
3:55 AM 55.4 °F 38.1 °F 52% 30.15 in 10.0 mi WSW 5.8 mph - N/A   Clear
4:15 AM 57.6 °F 37.6 °F 47% 30.15 in 10.0 mi WSW 5.8 mph - N/A   Clear
4:35 AM 58.5 °F 37.8 °F 46% 30.15 in 10.0 mi SW 5.8 mph - N/A   Clear
4:55 AM 57.2 °F 37.9 °F 49% 30.15 in 10.0 mi WSW 5.8 mph - N/A   Clear
5:15 AM 57.6 °F 38.5 °F 49% 30.15 in 10.0 mi SW 6.9 mph - N/A   Clear
5:35 AM 57.7 °F 39.0 °F 50% 30.15 in 10.0 mi West 8.1 mph - N/A   Clear
5:55 AM 57.0 °F 40.1 °F 53% 30.15 in 10.0 mi WSW 5.8 mph - N/A   Clear
6:15 AM 57.0 °F 40.3 °F 54% 30.15 in 10.0 mi West 3.5 mph - N/A   Clear
6:35 AM 58.1 °F 41.2 °F 53% 30.15 in 10.0 mi WSW 4.6 mph - N/A   Clear
6:55 AM 59.0 °F 43.0 °F 55% 30.16 in 10.0 mi WNW 6.9 mph - N/A   Clear
7:15 AM 61.5 °F 43.9 °F 52% 30.17 in 10.0 mi WSW 4.6 mph - N/A   Clear
7:35 AM 64.8 °F 43.9 °F 47% 30.18 in 10.0 mi Calm Calm - N/A   Clear
7:55 AM 67.1 °F 43.2 °F 42% 30.18 in 10.0 mi SW 4.6 mph - N/A   Clear
8:15 AM 68.2 °F 41.9 °F 38% 30.19 in 10.0 mi SW 3.5 mph - N/A   Clear
8:35 AM 69.6 °F 41.4 °F 36% 30.19 in 10.0 mi SSW 6.9 mph - N/A   Clear
8:55 AM 71.8 °F 41.9 °F 34% 30.19 in 10.0 mi South 10.4 mph - N/A   Clear
9:15 AM 72.7 °F 41.9 °F 33% 30.19 in 10.0 mi South 10.4 mph - N/A   Clear
9:35 AM 73.9 °F 41.4 °F 31% 30.19 in 10.0 mi South 8.1 mph - N/A   Clear
9:55 AM 74.7 °F 40.6 °F 29% 30.20 in 10.0 mi SSW 11.5 mph - N/A   Clear
10:15 AM 75.4 °F 40.6 °F 29% 30.19 in 10.0 mi SSW 9.2 mph 20.7 mph N/A   Clear
10:35 AM 76.5 °F 39.7 °F 27% 30.19 in 10.0 mi South 10.4 mph 23.0 mph N/A   Clear
10:55 AM 77.4 °F 40.8 °F 27% 30.20 in 10.0 mi South 13.8 mph 19.6 mph N/A   Clear
11:15 AM 78.4 °F 40.1 °F 25% 30.20 in 10.0 mi South 10.4 mph 18.4 mph N/A   Clear
11:35 AM 79.7 °F 40.5 °F 25% 30.20 in 10.0 mi South 13.8 mph 19.6 mph N/A   Clear
11:55 AM 80.2 °F 38.3 °F 22% 30.20 in 10.0 mi South 10.4 mph 19.6 mph N/A   Clear
12:15 PM 81.7 °F 37.6 °F 21% 30.19 in 10.0 mi SSE 11.5 mph 20.7 mph N/A   Clear
12:35 PM 82.8 °F 35.6 °F 18% 30.19 in 10.0 mi SSE 11.5 mph 19.6 mph N/A   Clear
12:55 PM 84.2 °F 35.2 °F 17% 30.18 in 10.0 mi SSE 11.5 mph 18.4 mph N/A   Clear
1:15 PM 85.1 °F 33.3 °F 16% 30.18 in 10.0 mi SSE 17.3 mph 25.3 mph N/A   Clear
1:35 PM 85.3 °F 32.0 °F 15% 30.18 in 10.0 mi SSW 13.8 mph 24.2 mph N/A   Clear
1:55 PM 86.5 °F 32.0 °F 14% 30.17 in 10.0 mi SE 15.0 mph 20.7 mph N/A   Clear
2:15 PM 86.9 °F 32.9 °F 14% 30.16 in 10.0 mi South 13.8 mph 19.6 mph N/A   Clear
2:35 PM 88.0 °F 31.5 °F 13% 30.16 in 10.0 mi South 11.5 mph 20.7 mph N/A   Clear
2:55 PM 88.2 °F 30.6 °F 13% 30.15 in 10.0 mi South 12.7 mph 21.9 mph N/A   Clear
3:15 PM 88.3 °F 29.8 °F 12% 30.15 in 10.0 mi South 19.6 mph 23.0 mph N/A   Clear
3:35 PM 88.7 °F 28.8 °F 12% 30.14 in 10.0 mi South 18.4 mph 26.5 mph N/A   Clear
3:55 PM 88.9 °F 28.6 °F 11% 30.14 in 10.0 mi South 17.3 mph - N/A   Clear
4:15 PM 89.2 °F 29.1 °F 12% 30.14 in 10.0 mi South 18.4 mph 24.2 mph N/A   Clear
4:35 PM 88.7 °F 28.9 °F 12% 30.13 in 10.0 mi SSE 18.4 mph 24.2 mph N/A   Clear
5:15 PM 88.2 °F 28.2 °F 12% 30.13 in 10.0 mi SSE 18.4 mph 25.3 mph N/A   Clear
5:35 PM 86.7 °F 27.5 °F 12% 30.13 in 10.0 mi South 19.6 mph 25.3 mph N/A   Clear
5:55 PM 83.7 °F 27.5 °F 13% 30.13 in 10.0 mi South 16.1 mph - N/A   Clear
6:15 PM 84.0 °F 27.3 °F 13% 30.13 in 10.0 mi South 17.3 mph 23.0 mph N/A   Clear
6:35 PM 82.8 °F 26.8 °F 13% 30.14 in 10.0 mi South 15.0 mph - N/A   Clear
6:55 PM 82.0 °F 27.5 °F 14% 30.14 in 10.0 mi SSE 13.8 mph 18.4 mph N/A   Clear
7:15 PM 80.2 °F 28.0 °F 15% 30.14 in 10.0 mi SE 11.5 mph - N/A   Clear
7:35 PM 78.1 °F 28.8 °F 16% 30.15 in 10.0 mi SSE 10.4 mph 16.1 mph N/A   Clear
7:55 PM 75.2 °F 39.0 °F 27% 30.16 in 10.0 mi SE 11.5 mph 23.0 mph N/A   Clear
8:15 PM 72.3 °F 39.7 °F 31% 30.17 in 10.0 mi East 12.7 mph - N/A   Clear
8:35 PM 70.7 °F 41.4 °F 35% 30.18 in 10.0 mi East 9.2 mph - N/A   Clear
8:55 PM 69.3 °F 42.6 °F 38% 30.19 in 10.0 mi East 10.4 mph 16.1 mph N/A   Clear
9:15 PM 68.4 °F 43.5 °F 41% 30.20 in 10.0 mi East 8.1 mph - N/A   Clear
9:35 PM 67.1 °F 44.4 °F 44% 30.20 in 10.0 mi East 6.9 mph - N/A   Clear
9:55 PM 67.1 °F 45.5 °F 46% 30.22 in 10.0 mi West 10.4 mph - N/A   Clear
10:15 PM 66.2 °F 46.0 °F 48% 30.22 in 10.0 mi Calm Calm - N/A   Clear
10:35 PM 65.8 °F 46.6 °F 50% 30.22 in 10.0 mi Calm Calm - N/A   Clear
10:55 PM 63.3 °F 47.3 °F 56% 30.22 in 10.0 mi Calm Calm - N/A   Clear
11:15 PM 65.5 °F 47.3 °F 52% 30.22 in 10.0 mi Calm Calm - N/A   Clear
11:35 PM 64.8 °F 47.3 °F 53% 30.22 in 10.0 mi Calm Calm - N/A   Clear
11:55 PM 64.2 °F 47.5 °F 55% 30.22 in 10.0 mi East 4.6 mph - N/A   Clear